Location: North Fort Myers
(26.6673°N, 81.8801°W)
Time: 04:36:22
(UTC+00:00)

Envisat - Pass Details

Date: 15 August 2022
Orbit: 764 x 765 km, 98.2° (Epoch: 02 October)

Event Time Altitude Azimuth Distance (km) Brightness Sun altitude
Rises 09:31:51 0° 16° (NNE) 3,230 6.9 -19.0°
Reaches altitude 10° 09:34:10 10° 19° (NNE) 2,301 6.1 -18.5°
Maximum altitude 09:39:12 65° 101° (E) 836 3.3 -17.5°
Drops below altitude 10° 09:44:13 10° 183° (S) 2,290 5.2 -16.5°
Enters shadow 09:45:34 - 185° (S) 2,824 5.6 -16.3°
